SKYNET 4E

Last updated on Thu Jul 03 2025 00:02:44 GMT+0000 (Coordinated Universal Time)

1 25639U 99009B 25183.46913786 -.00000035 00000+0 00000+0 0 9992 2 25639 11.8531 11.0166 0002589 98.8394 338.5209 1.00273452 47674
UTC large
Height (km)
Speed (km/s)
/
Latitude / Longitude
Inclination (degrees)
Orbital Period (minutes)
Azimuth
Elevation
Range (km)
Doppler Factor

Next 0 passes for location: London (51.5072 / 0.1276)

Sorry there are no passes over London.